Flag for United Kingdom Weather past 2 weeks in Belfast, Northern Ireland, United Kingdom

Now
34 °F

Passing clouds.


Feels Like: 24 °F
Forecast: 35 / 48 °F
Wind: 14 mph from Southwest

Location: Belfast / Aldergrove Airport

Current Time: Feb 27, 2015 at 1:29:13 AM

Latest Report: Feb 27, 2015 at 12:50 AM


Visibility: N/A

Pressure: 29.92 "Hg

Humidity: 100%

Dew point: 34 °F

Location of BelfastLocation

Historic Weather in Belfast — Graph

°F

Belfast temperature yesterday

Maximum temperature yesterday: 52 °F (at 12:20 AM)
Minimum temperature yesterday: 34 °F (at 9:20 PM)
Average temperature yesterday: 41 °F

Past Weeks' High & Low Weather Summary

 TemperatureHumidityPressure
High54 °F (Feb 18, 2:20 PM)100% (Feb 13, 7:50 AM)30.51 "Hg (Feb 13, 7:50 AM)
Low32 °F (Feb 16, 11:20 PM)66% (Feb 19, 2:20 PM)28.74 "Hg (Feb 23, 2:20 PM)
Average41 °F91%29.71 "Hg
* Reported Feb 12 12:50 AM — Feb 27 12:20 AM, Belfast, Weather by CustomWeather, © 2015

Note: Actual official high and low records may vary slightly from our data, if they occured in-between our weather recording intervals... More about our weather records

Advertising

Belfast weather history for previous 24 hours

 ConditionsComfort  
Time TempWeatherWind HumidityBarometerVisibility
12:20 AM
Fri, Feb 27
34 °FPassing clouds.14 mph100%29.92 "HgN/A
11:50 PM
Thu, Feb 26
34 °FLight rain. Partly cloudy.12 mph100%29.92 "Hg4 mi
11:20 PM36 °FLight rain. Partly cloudy.15 mph93%29.92 "HgN/A
10:50 PM36 °FLight rain. Partly cloudy.12 mph93%29.92 "HgN/A
10:20 PM34 °FPassing clouds.12 mph100%29.89 "HgN/A
9:50 PM36 °FPartly cloudy.14 mph93%29.89 "HgN/A
9:20 PM34 °FPassing clouds.13 mph100%29.89 "HgN/A
8:50 PM36 °FPassing clouds.16 mph93%29.89 "HgN/A
8:20 PM36 °FSprinkles. Passing clouds.15 mph93%29.89 "HgN/A
7:50 PM36 °FPassing clouds.13 mph87%29.89 "HgN/A
7:20 PM36 °FPassing clouds.13 mph93%29.86 "HgN/A
6:50 PM36 °FPassing clouds.15 mph93%29.86 "HgN/A
6:20 PM37 °FSprinkles. Partly cloudy.18 mph87%29.86 "HgN/A
5:50 PM37 °FPassing clouds.18 mph87%29.83 "HgN/A
5:20 PM37 °FPassing clouds.16 mph87%29.83 "HgN/A
4:50 PM37 °FPassing clouds.22 mph87%29.83 "HgN/A
4:20 PM39 °FPassing clouds.21 mph81%29.83 "HgN/A
3:50 PM39 °FPassing clouds.17 mph81%29.83 "HgN/A
3:20 PM39 °FPassing clouds.17 mph87%29.83 "HgN/A
2:50 PM37 °FScattered clouds.20 mph87%29.83 "HgN/A
2:20 PM41 °FScattered clouds.17 mph76%29.80 "HgN/A
1:50 PM39 °FScattered clouds.18 mph87%29.80 "HgN/A
1:20 PM37 °FScattered clouds.21 mph93%29.80 "HgN/A
12:50 PM41 °FScattered clouds.13 mph81%29.80 "HgN/A
12:20 PM37 °FScattered clouds.22 mph93%29.80 "HgN/A
11:20 AM41 °FPassing clouds.20 mph81%29.77 "HgN/A
10:50 AM41 °FPassing clouds.22 mph76%29.77 "HgN/A
10:20 AM39 °FPassing clouds.18 mph87%29.74 "HgN/A
9:50 AM41 °FScattered showers. Scattered clouds.15 mph87%29.74 "HgN/A
9:20 AM41 °FScattered clouds.16 mph81%29.74 "HgN/A
8:50 AM41 °FBroken clouds.17 mph87%29.71 "HgN/A
8:20 AM41 °FScattered showers. Scattered clouds.15 mph87%29.68 "HgN/A
7:50 AM41 °FBroken clouds.14 mph87%29.68 "HgN/A
7:20 AM41 °FPassing clouds.16 mph87%29.65 "Hg6 mi
6:50 AM43 °FPassing clouds.17 mph87%29.65 "Hg6 mi
5:50 AM43 °FPassing clouds.16 mph93%29.62 "Hg5 mi
5:20 AM45 °FPassing clouds.20 mph93%29.62 "Hg5 mi
4:50 AM46 °FLight rain. Partly cloudy.18 mph100%29.59 "HgN/A
3:50 AM52 °FLight rain. Partly cloudy.14 mph100%29.56 "HgN/A
3:20 AM52 °FLight rain. Passing clouds.14 mph100%29.56 "HgN/A
2:50 AM52 °FLight rain. Passing clouds.15 mph100%29.59 "HgN/A
2:20 AM52 °FLight rain. Passing clouds.16 mph100%29.59 "HgN/A
1:50 AM52 °FLight rain. Partly cloudy.15 mph100%29.59 "HgN/A
1:20 AM52 °FLight rain. Passing clouds.16 mph100%29.62 "HgN/A
Weather by CustomWeather, © 2015

See weather overviewHow to use our weather pages